Location: Newark
(44.1667°N, 8.2500°E)
Time: 02:05:55
(UTC+00:00)

Vanguard 2 - Pass Details

Date: 07 December 2019
Orbit: 553 x 2938 km, 32.9° (Epoch: 23 January)

Event Time Altitude Azimuth Distance (km) Brightness Sun altitude
Exits shadow 01:01:17 31° 123° (ESE) 4,249 11.1 -59.7°
Drops below altitude 10° 01:11:05 10° 92° (E) 5,547 12.1 -58.3°
Sets 01:15:36 0° 85° (E) 6,361 12.6 -57.6°
